Location: Krakow
(50.0830°N, 19.9170°E)
Time: 04:57:15
(UTC+01:00)

Courier 1B Rocket - Pass Details

Date: 19 December 2023
Orbit: 920 x 1202 km, 28.2° (Epoch: 01 March)

Event Time Altitude Azimuth Distance (km) Brightness Sun altitude
Rises 08:36:01 0° 235° (SW) 4,073 8.2 6.3°
Reaches altitude 10° 08:41:05 10° 208° (SSW) 3,070 8.0 6.8°
Maximum altitude 08:43:46 12° 187° (S) 2,881 8.2 7.1°
Drops below altitude 10° 08:46:25 10° 166° (SSE) 3,010 9.0 7.4°
Sets 08:51:16 0° 138° (SE) 3,901 10.6 7.8°
